STARLINK-31118 (58620 NORAD) Tracking and Keplerian Element Data

This shows tracking and keplerian element data for the satellite.

Feedback or suggestion? Click here.




ElementValue
Catalog58620
NameSTARLINK-31118
Epoch Orbit457
Epoch Day13.25002315
Epoch Year2024
RAAN183.748
Inclination43.0012
Eccentricity0.0001706
Argument of Perigee257.7653
Mean Anonmoly4.7583
Mean Motion15.5264604
Decay Rate-0.01741888
L11 58620U 23203C 24013.25002315 -.01741888 00000+0 -30927-1 0 9999
L22 58620 43.0012 183.7480 0001706 257.7653 4.7583 15.52646040 4579



Live tracking and technical data element details for STARLINK-31118 (NORAD 58620). STARLINK-31118 can be tracked NOW for your location showing map with azimuth and elevation plus other details from your city location.







IsCatalogInMostPopularTable: catalog: 58620, numindb: 24
Update: records affected: 1



GetName: 58620 STARLINK-31118

Hit Count: updated at: Wed, 17 Apr 2024 02:38:58 GMT